Time,TemperatureF,DewpointF,PressureIn,WindDirection,WindDirectionDegrees,WindSpeedMPH,WindSpeedGustMPH,Humidity,HourlyPrecipIn,Conditions,Clouds,dailyrainin,SoftwareType,DateUTC
2013-10-07 01:00:00,31.0,-99.9,-100.00,North,-999,-999.0,-999.0,-999,-99.99,,,0.00,,2013-10-07 07:00:00,
2013-10-07 01:52:00,31.0,-99.9,-100.00,North,-999,-999.0,-999.0,-999,-99.99,,,0.00,,2013-10-07 07:52:00,
2013-10-07 02:00:00,30.0,16.0,-100.00,SE,144,0.0,1.0,57,-99.99,,,0.00,,2013-10-07 08:00:00,
2013-10-07 02:52:00,30.0,16.0,-100.00,SE,144,0.0,1.0,57,-99.99,,,0.00,,2013-10-07 08:52:00,
2013-10-07 04:00:00,29.0,17.0,-100.00,SE,142,0.0,1.0,59,-99.99,,,0.00,,2013-10-07 10:00:00,
2013-10-07 04:53:00,29.0,17.0,-100.00,SE,142,0.0,1.0,59,-99.99,,,0.00,,2013-10-07 10:53:00,
2013-10-07 06:00:00,28.0,17.0,-100.00,SE,140,0.0,1.0,63,-99.99,,,0.00,,2013-10-07 12:00:00,
2013-10-07 06:52:00,28.0,17.0,-100.00,SE,140,0.0,1.0,63,-99.99,,,0.00,,2013-10-07 12:52:00,
2013-10-07 07:00:00,28.0,18.0,-100.00,SE,138,0.0,0.0,64,-99.99,,,0.00,,2013-10-07 13:00:00,
2013-10-07 07:52:00,28.0,18.0,-100.00,SE,138,0.0,0.0,64,-99.99,,,0.00,,2013-10-07 13:52:00,
2013-10-07 08:00:00,29.0,18.0,-100.00,SE,127,0.0,0.0,64,-99.99,,,0.00,,2013-10-07 14:00:00,
2013-10-07 08:52:00,29.0,18.0,-100.00,SE,127,0.0,0.0,64,-99.99,,,0.00,,2013-10-07 14:52:00,
2013-10-07 09:00:00,38.0,26.0,-100.00,SE,134,0.0,1.0,61,-99.99,,,0.00,,2013-10-07 15:00:00,
2013-10-07 09:53:00,38.0,26.0,-100.00,SE,134,0.0,1.0,61,-99.99,,,0.00,,2013-10-07 15:53:00,
2013-10-07 10:00:00,49.0,24.0,-100.00,SSE,157,1.0,4.0,38,-99.99,,,0.00,,2013-10-07 16:00:00,
2013-10-07 10:53:00,49.0,24.0,-100.00,SSE,157,1.0,4.0,38,-99.99,,,0.00,,2013-10-07 16:53:00,
2013-10-07 12:00:00,60.0,22.0,-100.00,NW,310,1.0,4.0,23,-99.99,,,0.00,,2013-10-07 18:00:00,
2013-10-07 12:52:00,60.0,22.0,-100.00,NW,310,1.0,4.0,23,-99.99,,,0.00,,2013-10-07 18:52:00,
2013-10-07 13:00:00,62.0,23.0,-100.00,NW,306,1.0,3.0,22,-99.99,,,0.00,,2013-10-07 19:00:00,
2013-10-07 13:53:00,62.0,23.0,-100.00,NW,306,1.0,3.0,22,-99.99,,,0.00,,2013-10-07 19:53:00,
2013-10-07 14:00:00,63.0,21.0,-100.00,WNW,300,2.0,5.0,20,-99.99,,,0.00,,2013-10-07 20:00:00,
2013-10-07 14:52:00,63.0,21.0,-100.00,WNW,300,2.0,5.0,20,-99.99,,,0.00,,2013-10-07 20:52:00,
2013-10-07 15:00:00,63.0,21.0,-100.00,WNW,299,1.0,3.0,19,-99.99,,,0.00,,2013-10-07 21:00:00,
2013-10-07 15:55:00,63.0,21.0,-100.00,WNW,299,1.0,3.0,19,-99.99,,,0.00,,2013-10-07 21:55:00,
2013-10-07 17:00:00,58.0,18.0,-100.00,NW,304,1.0,3.0,20,-99.99,,,0.00,,2013-10-07 23:00:00,
2013-10-07 17:52:00,58.0,18.0,-100.00,NW,304,1.0,3.0,20,-99.99,,,0.00,,2013-10-07 23:52:00,